Location: Austin
(30.3000°N, 97.7500°W)
Time: 03:12:25
(UTC-05:00)

CZ-2C R/B - Pass Details

Date: 10 May 2025
Orbit: 664 x 775 km, 98.4° (Epoch: 11 May)

Event Time Altitude Azimuth Distance (km) Brightness Sun altitude
Rises 04:34:28 0° 26° (NNE) 3,078 6.7 -24.2°
Reaches altitude 10° 04:37:01 10° 38° (NE) 2,140 5.8 -23.8°
Maximum altitude 04:41:03 29° 98° (E) 1,245 4.0 -23.1°
Enters shadow 04:44:34 12° 154° (SSE) 1,949 4.5 -22.5°
